Weather History for Savannah Hunter, GA

Change the Weather History Date:

Saturday, June 7, 2014

  Actual Average Record
Temperature  
Mean Temperature 76 °F -  
Max Temperature 85 °F 84 °F 93 °F (2008)
Min Temperature 68 °F 67 °F 59 °F (2006)
Cooling Degree Days 12    
Growing Degree Days 26 (Base 50)    
Moisture  
Dew Point 71 °F    
Average Humidity 86    
Maximum Humidity 100    
Minimum Humidity 61    
Precipitation  
Precipitation 0.05 in - - ()
Sea Level Pressure  
Sea Level Pressure 29.94 in    
Wind  
Wind Speed 6 mph (South)    
Max Wind Speed 12 mph    
Max Gust Speed -    
Visibility 10 miles    
Events Rain    
Averages and records for this station are not official NWS values.
T = Trace of Precipitation, MM = Missing Value Source: NWS Daily Summary

Daily Weather History Graph

Daily Weather History Graph

Search for Another Location

Airport:

Trip Planner

Search our weather history database for the weather conditions in past years. The results will help you decide how hot, cold, wet, or windy it might be!

Date:

Astronomy

Jun. 07, 2014 Rise Set
Actual Time 6:18 AM EDT 8:28 PM EDT
Civil Twilight 5:50 AM EDT 8:57 PM EDT
Nautical Twilight 5:15 AM EDT 9:31 PM EDT
Astronomical Twilight 4:39 AM EDT 10:08 PM EDT
Moon 3:03 PM EDT (6/7) 2:19 AM EDT (6/7)
Length of Visible Light 15h 06m
Length of Day
14h 10m
Waxing Gibbous, 67% of the Moon is Illuminated
Jun 7
Waxing Gibbous
Jun 13
Full
Jun 19
Last Quarter
Jun 27
New
Jul 5
First Quarter

Hourly Weather History & Observations

Time (EDT) Temp. Heat Index Dew Point Humidity Pressure Visibility Wind Dir Wind Speed Gust Speed Precip Events Conditions
12:13 AM 71.6 °F - 69.8 °F 94% 29.95 in 7.0 mi SW 6.9 mph - N/A Rain Light Rain
12:28 AM 71.6 °F - 69.8 °F 94% 29.95 in 10.0 mi South 3.5 mph - N/A Rain Light Rain
12:29 AM 71.6 °F - 69.8 °F 94% 29.95 in 10.0 mi South 3.5 mph - N/A   Scattered Clouds
12:58 AM 71.4 °F - 70.7 °F 98% 29.97 in 10.0 mi Variable 5.8 mph - 0.04 in   Scattered Clouds
1:20 AM 71.6 °F - 71.6 °F 100% 29.95 in 10.0 mi SW 5.8 mph - N/A   Light Drizzle
1:43 AM 71.6 °F - 71.6 °F 100% 29.95 in 10.0 mi WSW 9.2 mph - N/A   Partly Cloudy
1:58 AM 71.6 °F - 70.7 °F 97% 29.95 in 10.0 mi WSW 10.4 mph - 0.01 in   Partly Cloudy
2:58 AM 70.7 °F - 70.2 °F 98% 29.89 in 10.0 mi WSW 5.8 mph - N/A   Clear
3:58 AM 70.3 °F - 70.0 °F 99% 29.86 in 10.0 mi SSE 3.5 mph - N/A   Clear
4:58 AM 69.3 °F - 69.3 °F 100% 29.88 in 10.0 mi WSW 4.6 mph - N/A   Clear
5:58 AM 68.7 °F - 68.7 °F 100% 29.89 in 10.0 mi WNW 3.5 mph - N/A   Clear
6:58 AM 70.0 °F - 69.8 °F 99% 29.92 in 10.0 mi WNW 4.6 mph - N/A   Partly Cloudy
7:58 AM 72.0 °F - 72.0 °F 100% 29.95 in 10.0 mi West 5.8 mph - N/A   Clear
8:58 AM 74.3 °F - 72.0 °F 92% 29.97 in 10.0 mi West 6.9 mph - N/A   Clear
9:58 AM 77.9 °F - 71.2 °F 80% 29.98 in 10.0 mi WNW 5.8 mph - N/A   Partly Cloudy
10:58 AM 79.7 °F - 72.0 °F 77% 29.97 in 10.0 mi Variable 2.3 mph - N/A   Partly Cloudy
11:58 AM 81.9 °F 85.6 °F 70.0 °F 67% 29.97 in 10.0 mi West 5.8 mph - N/A   Scattered Clouds
1:33 PM 84.2 °F 89.6 °F 71.6 °F 66% 29.95 in 10.0 mi WNW 4.6 mph - N/A Rain Light Rain
1:46 PM 84.2 °F 89.6 °F 71.6 °F 66% 29.94 in 10.0 mi Variable 1.2 mph - N/A   Scattered Clouds
1:58 PM 84.6 °F 88.8 °F 70.0 °F 61% 29.95 in 10.0 mi Variable 4.6 mph - 0.00 in   Scattered Clouds
2:58 PM 85.3 °F 91.8 °F 72.7 °F 66% 29.93 in 10.0 mi SSE 6.9 mph - N/A   Scattered Clouds
3:58 PM 85.1 °F 91.8 °F 72.9 °F 67% 29.91 in 10.0 mi SSE 10.4 mph - N/A   Scattered Clouds
4:58 PM 83.5 °F 88.5 °F 71.6 °F 67% 29.92 in 10.0 mi SSE 10.4 mph - N/A   Partly Cloudy
5:58 PM 83.7 °F 88.6 °F 71.4 °F 66% 29.91 in 10.0 mi ESE 11.5 mph - N/A   Partly Cloudy
6:58 PM 81.1 °F 84.4 °F 69.4 °F 67% 29.92 in 10.0 mi SE 9.2 mph - N/A   Clear
7:58 PM 78.8 °F - 69.3 °F 72% 29.95 in 10.0 mi East 10.4 mph - N/A   Clear
8:58 PM 77.4 °F - 71.6 °F 82% 29.96 in 10.0 mi ESE 6.9 mph - N/A   Scattered Clouds
9:49 PM 77.0 °F - 71.6 °F 83% 29.94 in 10.0 mi SE 5.8 mph - N/A   Light Drizzle
9:58 PM 76.5 °F - 72.7 °F 88% 29.96 in 10.0 mi ESE 5.8 mph - 0.00 in Rain Light Rain
10:03 PM 77.0 °F - 73.4 °F 89% 29.94 in 10.0 mi East 5.8 mph - N/A Rain Light Rain
10:11 PM 75.2 °F - 73.4 °F 94% 29.96 in 10.0 mi ENE 5.8 mph - N/A   Mostly Cloudy
10:26 PM 77.0 °F - 73.4 °F 89% 29.97 in 10.0 mi NE 2.3 mph - N/A   Overcast
10:32 PM 77.0 °F - 73.4 °F 89% 29.96 in 10.0 mi East 3.5 mph - N/A Rain Light Rain
10:42 PM 75.2 °F - 73.4 °F 94% 29.97 in 10.0 mi SE 4.6 mph - N/A   Light Drizzle
10:43 PM 75.2 °F - 73.4 °F 94% 29.97 in 10.0 mi SE 5.8 mph - N/A   Mostly Cloudy
10:58 PM 76.1 °F - 73.9 °F 93% 29.98 in 10.0 mi Calm Calm - 0.00 in   Mostly Cloudy
11:58 PM 75.9 °F - 73.6 °F 92% 29.97 in 10.0 mi Calm Calm - N/A   Partly Cloudy